Latest Coastal Weather Observations for Flinders Reef

IDQ60701

Issued at 3:35 pm EST Saturday 23 August 2014 (issued every 10 minutes, with the page automatically refreshed every 10 minutes)

About coastal observations | Map of coastal stations | Coastal observations for QLD | Marine services | Other Formats
Station Details ID: 200783 Name: FLINDERS REEF Lat: -17.72 Lon: 148.45 Height: 2.6 m
Data from the previous 72 hours. | See also: Recent months at Flinders Reef
Date/Time
EST
Temp

°C
Wind Pressure Rain
since 9am
mm
Weather Cloud Vis
km
Sea
Height
m
Swell
Dir
 
Speed
knots
Gust
knots
hPa Trend Height
m
Period
s
Dir
23/03:30pm 22.5 SSE 21 24 1016.1 - - - - - - - - -
23/03:24pm 23.0 SSE 21 20 1016.0 - - - - - - - - -
23/03:00pm 22.7 SSE 21 25 1016.3 - - - - - - - - -
23/02:30pm 22.7 SSE 21 26 1016.3 - - - - - - - - -
23/02:24pm 22.8 SSE 21 - 1016.2 - - - - - - - - -
23/02:00pm 22.7 SSE 22 25 1016.6 - - - - - - - - -
23/01:30pm 22.6 SSE 20 24 1016.9 - - - - - - - - -
23/01:24pm 22.4 SSE 21 - 1016.9 - - - - - - - - -
23/01:00pm 22.7 SSE 21 25 1017.2 - - - - - - - - -
23/12:30pm 22.6 SSE 21 25 1017.5 - - - - - - - - -
23/12:24pm 22.7 SSE 21 - 1017.4 - - - - - - - - -
23/12:00pm 22.6 SSE 22 26 1017.7 - - - - - - - - -
23/11:30am 22.8 SSE 22 25 1018.2 - - - - - - - - -
23/11:24am 22.8 SSE 21 - 1018.2 - - - - - - - - -
23/11:00am 22.9 SSE 21 26 1018.6 - - - - - - - - -
23/10:30am 23.1 SSE 20 24 1018.8 - - - - - - - - -
23/10:24am 23.1 SSE 20 - 1018.8 - - - - - - - - -
23/10:00am 23.3 SSE 20 23 1019.0 - - - - - - - - -
23/09:30am 23.4 SSE 20 23 1019.0 - - - - - - - - -
23/09:24am 23.2 SSE 20 - 1019.0 - - - - - - - - -
23/09:00am 23.1 SSE 19 22 1019.0 - - - - - - - - -
23/08:30am 23.0 SSE 20 24 1018.6 - - - - - - - - -
23/08:24am 23.1 SSE 20 - 1018.4 - - - - - - - - -
23/08:00am 23.0 SSE 20 23 1018.2 - - - - - - - - -
 
Date/Time
EST
Temp

°C
Wind Pressure Rain
since 9am
mm
Weather Cloud Vis
km
Sea
Height
m
Swell
Dir
 
Speed
knots
Gust
knots
hPa Trend Height
m
Period
s
Dir
22/06:30pm 22.7 SE 19 23 1017.0 - - - - - - - - -
22/06:24pm 22.4 SSE 20 - 1016.8 - - - - - - - - -
22/06:00pm 22.7 SSE 20 24 1016.4 - - - - - - - - -
22/05:30pm 22.6 SSE 21 25 1016.2 - - - - - - - - -
22/05:24pm 22.6 SSE 21 - 1016.0 - - - - - - - - -
22/05:00pm 22.7 SSE 20 23 1016.1 - - - - - - - - -
22/04:30pm 22.6 SSE 21 24 1016.0 - - - - - - - - -
22/04:24pm 22.7 SSE 21 - 1015.8 - - - - - - - - -
22/04:00pm 22.7 SSE 19 23 1015.9 - - - - - - - - -
22/03:30pm 22.9 SSE 20 24 1015.9 - - - - - - - - -
22/03:24pm 22.9 SSE 20 - 1015.7 - - - - - - - - -
22/03:00pm 23.2 SSE 20 23 1015.7 - - - - - - - - -
22/02:30pm 23.1 SSE 20 23 1015.8 - - - - - - - - -
22/02:24pm 22.8 SSE 21 - 1015.8 - - - - - - - - -
22/02:00pm 22.9 SE 21 23 1016.0 - - - - - - - - -
22/01:30pm 23.1 SE 20 23 1016.5 - - - - - - - - -
22/01:24pm 23.2 SE 20 - 1016.4 - - - - - - - - -
22/01:00pm 23.5 SE 18 23 1016.9 - - - - - - - - -
22/12:30pm 23.4 SE 19 22 1017.2 - - - - - - - - -
22/12:24pm 23.5 SE 18 - 1017.1 - - - - - - - - -
22/12:00pm 23.8 SE 18 21 1017.5 - - - - - - - - -
22/11:30am 23.4 SE 17 19 1017.9 - - - - - - - - -
22/11:24am 23.2 SE 16 - 1017.9 - - - - - - - - -
22/11:00am 23.4 SE 17 21 1018.4 - - - - - - - - -
22/10:30am 23.2 ESE 18 21 1018.7 - - - - - - - - -
22/10:24am 23.3 ESE 18 - 1018.6 - - - - - - - - -
22/10:00am 23.4 ESE 18 20 1018.9 - - - - - - - - -
22/09:30am 23.3 ESE 17 20 1018.8 - - - - - - - - -
22/09:24am 23.4 ESE 17 - 1018.8 - - - - - - - - -
22/09:00am 23.3 ESE 18 20 1018.7 - - - - - - - - -
22/08:30am 23.3 ESE 18 21 1018.6 - - - - - - - - -
22/08:24am 23.2 ESE 18 - 1018.4 - - - - - - - - -
22/08:00am 23.1 ESE 17 20 1018.4 - - - - - - - - -
22/07:30am 23.1 ESE 17 19 1018.1 - - - - - - - - -
22/07:24am 23.1 ESE 18 - 1018.0 - - - - - - - - -
 
Date/Time
EST
Temp

°C
Wind Pressure Rain
since 9am
mm
Weather Cloud Vis
km
Sea
Height
m
Swell
Dir
 
Speed
knots
Gust
knots
hPa Trend Height
m
Period
s
Dir
21/06:30pm 23.1 ESE 15 17 1016.5 - - - - - - - - -
21/06:24pm 22.9 ESE 15 - 1016.3 - - - - - - - - -
21/06:00pm 22.8 ESE 16 18 1015.9 - - - - - - - - -
21/05:30pm 22.7 ESE 15 18 1015.7 - - - - - - - - -
21/05:24pm 22.8 ESE 15 - 1015.6 - - - - - - - - -
21/05:00pm 22.8 ESE 15 19 1015.5 - - - - - - - - -
21/04:30pm 22.9 ESE 15 18 1015.2 - - - - - - - - -
21/04:24pm 23.0 ESE 14 - 1015.1 - - - - - - - - -
21/04:00pm 22.9 ESE 14 16 1015.0 - - - - - - - - -
21/03:30pm 22.8 ESE 14 17 1014.9 - - - - - - - - -
21/03:24pm 22.8 ESE 14 - 1014.8 - - - - - - - - -
21/03:00pm 23.1 ESE 13 16 1015.0 - - - - - - - - -
21/02:30pm 23.0 SE 13 15 1015.2 - - - - - - - - -
21/02:24pm 23.0 SE 13 - 1015.1 - - - - - - - - -
21/02:00pm 22.9 SE 13 15 1015.5 - - - - - - - - -
21/01:30pm 23.0 SE 12 14 1015.9 - - - - - - - - -
21/01:24pm 22.9 SE 12 - 1015.9 - - - - - - - - -
21/01:00pm 22.9 SE 13 15 1016.2 - - - - - - - - -
21/12:30pm 23.0 SE 12 16 1016.5 - - - - - - - - -
21/12:24pm 23.0 SE 13 - 1016.4 - - - - - - - - -
21/12:00pm 23.0 ESE 13 15 1016.8 - - - - - - - - -
21/11:30am 22.7 SE 13 16 1017.3 - - - - - - - - -
21/11:24am 22.8 SE 13 - 1017.2 - - - - - - - - -
21/11:00am 22.9 SE 13 16 1017.6 - - - - - - - - -
21/10:30am 22.8 SE 13 17 1017.8 - - - - - - - - -
21/10:24am 22.6 SE 13 - 1017.8 - - - - - - - - -
21/10:00am 22.5 SE 13 15 1018.0 - - - - - - - - -
21/09:30am 22.7 ESE 12 14 1018.1 - - - - - - - - -
21/09:24am 22.9 ESE 12 - 1017.9 - - - - - - - - -
21/09:00am 22.5 ESE 13 15 1018.0 - - - - - - - - -
21/08:30am 22.7 E 13 16 1017.9 - - - - - - - - -
21/08:24am 22.8 E 14 - 1017.8 - - - - - - - - -
21/08:00am 22.5 ESE 14 17 1017.7 - - - - - - - - -
21/07:30am 22.3 ESE 14 16 1017.4 - - - - - - - - -
21/07:24am 22.2 ESE 13 - 1017.3 - - - - - - - - -
 
Date/Time
EST
Temp

°C
Wind Pressure Rain
since 9am
mm
Weather Cloud Vis
km
Sea
Height
m
Swell
Dir
 
Speed
knots
Gust
knots
hPa Trend Height
m
Period
s
Dir
20/07:00pm 22.3 ESE 17 20 1017.8 - - - - - - - - -
20/06:30pm 22.5 ESE 18 21 1017.4 - - - - - - - - -
20/06:24pm 22.4 SE 18 - 1017.1 - - - - - - - - -
20/06:00pm 22.4 ESE 18 22 1016.9 - - - - - - - - -
20/05:30pm 22.5 ESE 18 21 1016.7 - - - - - - - - -
20/05:24pm 22.5 ESE 18 - 1016.5 - - - - - - - - -
20/05:00pm 22.6 SE 17 20 1016.3 - - - - - - - - -
20/04:30pm 22.6 SE 17 21 1015.7 - - - - - - - - -
20/04:24pm 22.6 SE 18 - 1015.5 - - - - - - - - -
20/04:00pm 22.7 SE 18 19 1015.4 - - - - - - - - -

Other Formats:

Comma delimited format used in spreadsheet applications
http://www.bom.gov.au/fwo/IDQ60701/IDQ60701.94290.axf

JavaScript Object Notation format (JSON) in row-major order
http://www.bom.gov.au/fwo/IDQ60701/IDQ60701.94290.json